Flag for Germany Weather past 2 weeks in Neumarkt in der Oberpfalz, Bavaria, Germany

Now
41 °F

Overcast.


Feels Like: 34 °F
Forecast: 34 / 46 °F
Wind: 10 mph from West

Location: Hohenfels

Current Time: Dec 22, 2014 at 6:04:35 AM

Latest Report: Dec 22, 2014 at 4:58 AM


Visibility: N/A

Pressure: 30.26 "Hg

Humidity: 74%

Dew point: 33 °F

Location of Neumarkt in der OberpfalzLocation

Historic Weather in Neumarkt in der Oberpfalz — Graph

°F

Neumarkt in der Oberpfalz temperature yesterday

Maximum temperature yesterday: 41 °F (at 12:58 PM)
Minimum temperature yesterday: 37 °F (at 12:58 AM)
Average temperature yesterday: 39 °F

Past Weeks' High & Low Weather Summary

 TemperatureHumidityPressure
High52 °F (Dec 19, 1:58 PM)100% (Dec 8, 4:58 AM)30.52 "Hg (Dec 8, 4:58 AM)
Low27 °F (Dec 8, 10:58 PM)54% (Dec 13, 1:58 PM)29.74 "Hg (Dec 12, 5:58 PM)
Average40 °F89%30.10 "Hg
* Reported Dec 7 4:58 AM — Dec 22 4:58 AM, Neumarkt in der Oberpfalz, Weather by CustomWeather, © 2014

Note: Actual official high and low records may vary slightly from our data, if they occured in-between our weather recording intervals... More about our weather records

Advertising

Neumarkt in der Oberpfalz weather history for previous 24 hours

 ConditionsComfort  
Time TempWeatherWind HumidityBarometerVisibility
4:58 AM
Dec 22
41 °FOvercast.10 mph74%30.26 "HgN/A
3:58 AM41 °FOvercast.13 mph75%30.28 "HgN/A
2:58 AM40 °FLight rain. Overcast.12 mph77%30.34 "HgN/A
1:58 AM39 °FMostly cloudy.9 mph81%30.35 "HgN/A
12:58 AM40 °FOvercast.10 mph78%30.36 "HgN/A
11:58 PM
Dec 21
40 °FOvercast.12 mph77%30.37 "HgN/A
10:58 PM40 °FOvercast.10 mph75%30.39 "HgN/A
9:58 PM40 °FOvercast.10 mphN/A30.40 "HgN/A
8:58 PM40 °FOvercast.7 mphN/A30.42 "HgN/A
7:58 PM39 °FMostly cloudy.8 mph79%30.44 "HgN/A
7:00 PM39 °FDrizzle. Mostly cloudy.9 mph81%30.39 "HgN/A
6:58 PM39 °FDrizzle. Overcast.9 mph83%30.45 "HgN/A
2:58 PM41 °FMostly cloudy.8 mph70%30.47 "HgN/A
1:58 PM41 °FMostly cloudy.8 mph70%30.50 "HgN/A
12:58 PM41 °FOvercast.9 mph70%30.50 "HgN/A
11:58 AM39 °FOvercast.9 mph84%30.51 "HgN/A
10:59 AM39 °FLight rain. Overcast.7 mph81%30.45 "HgN/A
10:58 AM39 °FOvercast.8 mph81%30.51 "HgN/A
10:00 AM37 °FMore clouds than sun.12 mph81%30.43 "HgN/A
9:02 AM37 °FPartly sunny.8 mph81%30.43 "HgN/A
7:59 AM37 °FPartly cloudy.13 mph81%30.41 "HgN/A
7:58 AM37 °FPassing clouds.10 mph81%30.47 "HgN/A
6:58 AM37 °FOvercast.12 mph81%30.45 "HgN/A
Weather by CustomWeather, © 2014

See weather overviewHow to use our weather pages